Вернуться в каталог

QIANFAN-81

АктивенСвязьPO
NORAD 63167·PAYLOAD·🇨🇳 China

Запущен Mar 11, 2025 с Wenchang Space Launch Site

Loading…

Ближайшие Пролёты (ближайшие 24 часа)

TLE

СвежийSource: Space-Track

Эпоха: Sep 14, 2026, 21:25 UTC

1 63167U 25046J   26257.89301788  .00000092  00000-0  12364-3 0  9996
2 63167  88.9651 291.2046 0016235  50.1287 310.1290 13.51020105 84776

Отслеживайте QIANFAN-81 в реальном времени с AllMySat

Download on the App Store